sat.trackr.live / text

‹ back to catalog

STARLINK-31995

NORAD 59958 · 2024-107P

PAYLOAD ACTIVE UNKNOWN

§ Identity

Operator
Country
US
Launch date
2024-06-05
Launch site
AFETR
Launch vehicle
Mass (kg)
RCS (m²)

Purposes: comms

External: N2YO · Heavens-Above · Gunter

§ Orbital elements

Epoch: 2026-09-21T08:10:17.462496Z

Period
93.85 min
Inclination
53.1566°
Eccentricity
0.0001561
Mean motion
15.34397422 rev/d
Perigee alt
461.6 km
Apogee alt
463.8 km
Semi-major
6,840.8 km
B*
9.6412e-5
RAAN
233.7667°
Arg perigee
86.4696°
Mean anomaly
273.6485°
Rev number
12,859

§ Raw data

STARLINK-319951 59958U 24107P   26264.34047989  .00002882  00000+0  96412-4 0  99992 59958  53.1566 233.7667 0001561  86.4696 273.6485 15.34397422128590

JSON: /api/v1/satellites/59958 · /tle

For live sub-satellite position, see the globe view (requires WebGL).

§ Visibility from observer

Set your observer location to see the next 7 days of passes ≥ 10°. The values pass through the URL so the page stays shareable.

No JS? Fill the form by hand. The geolocation button needs JavaScript.